Regional Weather Roundup
Issued by NWS

Home | Current Version | Previous Version | Text Only | Print | Product List | Glossary Off
Versions: 1 2 3 4 5 6 7 8 9 10 11 12 13 14 15 16 17 18 19 20 21 22 23 24 25 26 27 28 29 30 31 32 33 34 35 36 37 38 39 40 41 42 43 44 45 46 47 48 49 50

000
ASUS43 KDMX 030007
RWRIA

WEATHER ROUNDUP FOR IOWA
NATIONAL WEATHER SERVICE DES MOINES IA
700 PM CDT SUN AUG 02 2015

NOTE: "FAIR" INDICATES FEW OR NO CLOUDS BELOW 12,000 FEET WITH NO
SIGNIFICANT WEATHER AND/OR OBSTRUCTIONS TO VISIBILITY.

* - THESE STATIONS ARE NOT NWS STATIONS...THUS NOT UNDER NWS
QUALITY CONTROL.  THEY ALSO DO NOT REPORT WEATHER SUCH
AS PRECIPITATION OR FOG.

IAZ001>003-012>014-020>022-031>034-043>046-030100-
   NORTHWEST IOWA

CITY           SKY/WX    TMP DP  RH WIND       PRES   REMARKS
CARROLL *      SUNNY     84  75  74 NW8       29.78S HX  92
CHEROKEE *     LGT RAIN  82  69  63 NW7       29.81S HX  86
DENISON *      SUNNY     82  73  74 NW8       29.78F HX  88
LE MARS *      SUNNY     84  70  61 N6        29.82F HX  88
ORANGE CITY *  SUNNY     81  66  61 NW8       29.84R HX  83
SHELDON *      SUNNY     81  68  65 N6        29.82S HX  83
SPENCER        SUNNY     85  60  42 N13       29.81F HX  85
6HR MIN TEMP:  85; 6HR MAX TEMP:  90;

STORM LAKE *   SUNNY     82  70  65 NW6       29.82F HX  86
$$

IAZ055>058-069>071-079>083-090>094-030100-
   SOUTHWEST IOWA

CITY           SKY/WX    TMP DP  RH WIND       PRES   REMARKS
ATLANTIC *     SUNNY     86  77  74 VRB6      29.79R HX  97
AUDUBON *      SUNNY     84  75  74 N5        29.80R HX  92
CLARINDA *     SUNNY     86  77  74 W8G15     29.79R HX  97
COUNCIL BLFS * MOSUNNY   88  77  70 NW9       29.79F HX 100
CRESTON *      HVY RAIN  75  68  78 N14G26    29.88R
HARLAN  *      SUNNY     84  81  89 NW5G13    29.82S HX  98
LAMONI         LGT RAIN  85  74  69 SW12      29.79R HX  92
6HR MIN TEMP:  85; 6HR MAX TEMP:  90; 6HR PCP: TRACE;

RED OAK *      MOSUNNY   86  77  74 W6        29.79R HX  97
SHENANDOAH *   SUNNY     86  77  74 W6        29.77R HX  97
$$

IAZ047>049-059>061-072>074-084-030100-
   CENTRAL IOWA

CITY           SKY/WX    TMP DP  RH WIND       PRES   REMARKS
AMES           PTSUNNY   87  75  67 NW6       29.76R HX  96
6HR MIN TEMP:  86; 6HR MAX TEMP:  89;

ANKENY *       MOSUNNY   82  64  54 SW10      29.77R HX  84
CHARITON *     HVY RAIN  68  63  83 N36G58    29.88R VSB 3/4
DES MOINES     PTSUNNY   77  66  68 S14       29.79R
6HR MIN TEMP:  77; 6HR MAX TEMP:  93; 6HR PCP:  0.05;

GRINNELL*      MOSUNNY   88  75  66 W9        29.77R HX  97
KNOXVILLE *    MOSUNNY   82  63  51 W26G37    29.77F HX  83
MARSHALLTOWN   MOSUNNY   86  76  71 W6        29.74S HX  96
6HR MIN TEMP:  86; 6HR MAX TEMP:  89;

PELLA *        LGT RAIN  79  75  89 NW7G14    29.79R HX  82
PERRY *        PTSUNNY   86  77  74 NW3       29.79R HX  97
$$

IAZ004>006-015-016-023>025-035-036-030100-
   NORTH CENTRAL IOWA

CITY           SKY/WX    TMP DP  RH WIND       PRES   REMARKS
ALGONA *       SUNNY     81  63  54 N7        29.79F HX  82
CLARION *      SUNNY     82  70  65 N7        29.77S HX  86
ESTHERVILLE    SUNNY     79  61  53 N12G20    29.81S HX  80
6HR MIN TEMP:  79; 6HR MAX TEMP:  86;

FORT DODGE *   SUNNY     82  68  61 NW6       29.78S HX  85
MASON CITY     SUNNY     82  66  58 NW12      29.77F HX  84
6HR MIN TEMP:  82; 6HR MAX TEMP:  89;

FOREST CITY *  SUNNY     79  61  53 NW10      29.77F HX  80
IOWA FALLS *     N/A     83  69  62 W5        29.77R HX  87
$$

IAZ007>011-017>019-026>030-037>042-050>054-066-030100-
   NORTHEAST IOWA

CITY           SKY/WX    TMP DP  RH WIND       PRES   REMARKS
CEDAR RAPIDS   SUNNY     86  78  77 W10       29.72S HX  98
6HR MIN TEMP:  85; 6HR MAX TEMP:  89;

CHARLES CITY * SUNNY     81  64  57 NW13      29.74S HX  82
CLINTON *      SUNNY     88  73  62 W18       29.71F HX  96
DECORAH *      SUNNY     82  66  57 VRB6G17   29.70F HX  85
DUBUQUE        SUNNY     85  73  67 W15       29.70F HX  91
6HR MIN TEMP:  85; 6HR MAX TEMP:  88;

MONTICELLO *   SUNNY     86  73  66 W8        29.70F HX  93
OELWEIN *      SUNNY     82  68  61 W9        29.72F HX  85
WATERLOO       SUNNY     85  67  54 NW8       29.71F HX  87
6HR MIN TEMP:  85; 6HR MAX TEMP:  90;

$$

IAZ064-065-067-068-078-030100-
   EAST CENTRAL IOWA

CITY           SKY/WX    TMP DP  RH WIND       PRES   REMARKS
DAVENPORT      SUNNY     86  74  67 SW12      29.71F HX  94
6HR MIN TEMP:  85; 6HR MAX TEMP:  89;

IOWA CITY      SUNNY     88  76  67 SW8       29.73F HX  99
6HR MIN TEMP:  86; 6HR MAX TEMP:  91;

MT. PLEASANT * SUNNY     85  72  65 SW6       29.75R HX  91
MUSCATINE *    SUNNY     88  73  62 SW10G17   29.72S HX  96
QUAD CITIES    SUNNY     88  74  63 SW10      29.70F HX  96
6HR MIN TEMP:  88; 6HR MAX TEMP:  91;

$$

IAZ062-063-075>077-085>089-095>099-030100-
   SOUTHEAST IOWA

CITY           SKY/WX    TMP DP  RH WIND       PRES   REMARKS
BURLINGTON     SUNNY     85  74  69 SW12      29.75F HX  92
6HR MIN TEMP:  85; 6HR MAX TEMP:  90;

FAIRFIELD *    MOSUNNY   84  75  74 W6        29.77R HX  92
FORT MADISON * SUNNY     84  73  70 SW9       29.77R HX  91
KEOKUK *       SUNNY     84  73  70 SW10      29.76S HX  91
OSKALOOSA *      N/A     81  74  81 W5        29.78R HX  86
CENTERVILLE *  SUNNY     82  75  78 SW7       29.82R HX  89
OTTUMWA        PTSUNNY   82  75  79 SW10      29.75R HX  89
6HR MIN TEMP:  82; 6HR MAX TEMP:  89;

WASHINGTON *   SUNNY     84  77  79 SW7       29.77R HX  94
$$

ABBREVIATIONS USED IN REMARKS
   TC - TEMPERATURES IN CELSIUS
  WCI - WIND CHILL INDEX
   HX - HEAT INDEX
  VSB - VISIBILITY
$$



USA.gov is the U.S. government's official web portal to all federal, state and local government web resources and services.